Regional Weather Roundup
Issued by NWS

Home | Current Version | Previous Version | Text Only | Print | Product List | Glossary Off
Versions: 1 2 3 4 5 6 7 8 9 10 11 12 13 14 15 16 17 18 19 20 21 22 23 24 25 26 27 28 29 30 31 32 33 34 35 36 37 38 39 40 41 42 43 44 45 46 47 48 49 50

000
ASUS45 KSLC 240510
RWRUT

UTAH REGIONAL WEATHER ROUNDUP
NATIONAL WEATHER SERVICE SALT LAKE CITY UT
1100 PM MDT TUE MAY 23 2017

UTZ001>011-023>025-240600-

NORTHERN UTAH

CITY           SKY/WX    TMP DP  RH WIND       PRES   REMARKS
BRIGHAM CITY   CLEAR     62  45  53 SE6       30.00F
HILL AFB       CLEAR     64  33  32 E13       30.02F
LOGAN          CLEAR     63  44  50 SE7       30.00F
OGDEN          CLEAR     61  37  41 S9        30.00S
SALT LAKE CITY CLEAR     66  41  40 S8        29.99F
TOOELE VALLEY  CLEAR     55  41  58 S12       30.01S
WENDOVER       NOT AVBL
HEBER CITY     CLEAR     48  36  61 CALM      30.10R
WEST JORDAN    CLEAR     66  49  55 SW8       30.03F

$$

UTZ011>015-024>027-240600-

CENTRAL/NORTHEAST UTAH

CITY           SKY/WX    TMP DP  RH WIND       PRES   REMARKS
PROVO AIRPORT  CLEAR     60  47  61 SE8       30.04S
MOAB/CANYONLAN CLEAR     63  27  25 CALM      30.03R
DELTA          CLEAR     59  43  55 NE3       30.04S
PRICE          CLEAR     57  33  40 N3        30.10S
ROOSEVELT      CLEAR     50  37  62 W6        30.10F
VERNAL         CLEAR     57  39  51 W3        30.08S

$$

UTZ013>016-019>022-027-240600-

SOUTHERN UTAH

CITY           SKY/WX    TMP DP  RH WIND       PRES   REMARKS
BRYCE CANYON   CLEAR     45  27  49 W3        30.25R
CEDAR CITY     CLEAR     63  33  32 SE8       30.08S
MILFORD        CLEAR     59  31  34 NW5       30.04S
ST GEORGE      CLEAR     78  30  17 E6        29.91R
HANKSVILLE     CLEAR     64  30  27 NE6       30.04S
KANAB          CLEAR     59  36  41 N3        30.10R
BLANDING       CLEAR     57  31  37 N8        30.19S

$$

REGIONAL REPORTS     COLORADO/ARIZONA

CITY           SKY/WX    TMP DP  RH WIND       PRES   REMARKS
CRAIG, CO      CLEAR     44  35  70 E5        30.14S
GRAND JUNCTION CLEAR     57  29  34 E5        30.07S
RIFLE, CO      CLEAR     52  30  43 E7        30.14R
MONTROSE, CO   CLEAR     53  29  39 SE8       30.17R
CORTEZ, CO     CLEAR     46  34  62 NE5       30.14R
COLORADO CITY    N/A     57  32  38 E5        30.09S
PAGE, AZ       CLEAR     71  35  26 E5        30.01S
GRAND CANYON   CLEAR     46  28  49 CALM      30.21S HAZE
KINGMAN, AZ    CLEAR     68  23  18 MISG      29.97R
FLAGSTAFF, AZ  CLEAR     50  27  40 CALM      30.23R

$$

REGIONAL REPORTS    NEVADA/IDAHO/WYOMING

CITY           SKY/WX    TMP DP  RH WIND       PRES   REMARKS
LAS VEGAS, NV  CLEAR     90  23   9 S6        29.83R
ELY, NY        CLEAR     51  26  37 S8        30.13S
ELKO, NV       CLEAR     58  43  57 CALM      30.05F
POCATELLO, ID  CLEAR     60  41  49 S9        29.97F
BURLEY, ID     CLEAR     59  46  62 SW10      29.95F
FORT BRIDGER,    N/A     56  36  47 SW10      30.18F
EVANSTON, WY   CLEAR     53  33  46 S6        30.16F
ROCK SPRINGS,  CLEAR     55  38  52 SW13      30.10F
KEMMERER, WY     N/A     50  37  62 SW6       30.16F

$$



USA.gov is the U.S. government's official web portal to all federal, state and local government web resources and services.